Voltar ao catálogo

DELTA 1 DEB

AtivoPO
NORAD 19311·DEBRIS·🇺🇸 United States

Lançado Jan 22, 1975 de Vandenberg Space Force Base

Loading…

Próximas Passagens (próximas 24 horas)

TLE

AtualizadoSource: Space-Track

Época: Sep 13, 2026, 07:22 UTC

1 19311U 75004HP  26256.30742367  .00001138  00000-0  37415-3 0  9990
2 19311  97.6864 200.0452 0134331 359.8236   0.2882 14.34885138    17

Acompanhe DELTA 1 DEB em tempo real com AllMySat

Download on the App Store